This demonstration page uses our WeatherBlox Daily Observations layout. Learn more.

Left ArrowRight Arrow

39.12711, -84.51439

Hourly Observations for September 28, 2022

Temp ( °F °C ) Dew Point ( °F °C ) Humidity (%) Winds ( mph kmh ) Pressure ( in mb ) Visibility ( mi km ) Precip ( " mm )
12:53 am 00:53 Clear 45 7.2 40 4.4 82 82 Calm 30.24 1024 10 16 0.00 0.00
1:53 am 01:53 Clear 45 7.2 40 4.4 82 82 Calm 30.25 1024 10 16 0.00 0.00
2:53 am 02:53 Clear 43 6.1 41 5 93 93 Calm 30.26 1025 10 16 0.00 0.00
3:53 am 03:53 Clear 42 5.6 40 4.4 92 92 Calm 30.26 1025 10 16 0.00 0.00
4:53 am 04:53 Clear 41 5 40 4.4 96 96 Calm 30.26 1025 10 16 0.00 0.00
5:53 am 05:53 Clear 42 5.6 40 4.4 92 92 Calm 30.28 1025 10 16 0.00 0.00
6:53 am 06:53 Clear 40 4.4 39 3.9 97 97 Calm 30.29 1026 10 16 0.00 0.00
7:53 am 07:53 Mostly Cloudy 42 5.6 41 5 96 96 ENE 3 6 30.31 1026 10 16 0.00 0.00
8:40 am 08:40 Mostly Cloudy 44 6.7 42 5.6 93 93 Calm 30.33 1027 10 16 0.00 0.00
8:53 am 08:53 Mostly Cloudy 46 7.8 43 6.1 89 89 Calm 30.32 1027 10 16 0.00 0.00
9:53 am 09:53 Sunny 54 12.2 46 7.8 74 74 N 7 11 30.34 1027 10 16 0.00 0.00
10:53 am 10:53 Mostly Cloudy 56 13.3 45 7.2 66 66 N 12 19 30.36 1028 10 16 0.00 0.00
11:23 am 11:23 Cloudy 56 13.3 46 7.8 69 69 NE 9 15 30.37 1028 10 16 0.00 0.00
11:53 am 11:53 Cloudy 56 13.3 45 7.2 66 66 NNE 5 7 30.38 1029 10 16 0.00 0.00
12:53 pm 12:53 Cloudy 57 13.9 44 6.7 62 62 N 14 22 30.40 1029 10 16 0.00 0.00
1:53 pm 13:53 Cloudy 59 15 44 6.7 58 58 NNW 12 19 30.40 1029 10 16 0.00 0.00
2:53 pm 14:53 Cloudy 59 15 44 6.7 58 58 N 12 19 30.39 1029 10 16 0.00 0.00
3:53 pm 15:53 Cloudy 61 16.1 44 6.7 54 54 N 8 13 30.38 1029 10 16 0.00 0.00
4:53 pm 16:53 Cloudy 59 15 43 6.1 55 55 N 10 17 30.39 1029 10 16 0.00 0.00
5:53 pm 17:53 Mostly Cloudy 60 15.6 43 6.1 53 53 NE 10 17 30.38 1029 10 16 0.00 0.00
6:53 pm 18:53 Cloudy 57 13.9 44 6.7 62 62 NE 5 7 30.40 1030 10 16 0.00 0.00
7:53 pm 19:53 Clear 52 11.1 45 7.2 77 77 Calm 30.42 1030 10 16 0.00 0.00
8:53 pm 20:53 Partly Cloudy 49 9.4 45 7.2 86 86 Calm 30.43 1031 10 16 0.00 0.00
9:53 pm 21:53 Cloudy 50 10 48 8.9 93 93 Calm 30.45 1031 10 16 0.00 0.00
10:53 pm 22:53 Partly Cloudy 48 8.9 46 7.8 93 93 Calm 30.45 1031 10 16 0.00 0.00
11:53 pm 23:53 Clear 45 7.2 44 6.7 97 97 NE 3 6 30.45 1031 10 16 0.00 0.00

Powered by AerisWeather